SWISSCUBE (35932 NORAD) Tracking and Keplerian Element Data

This shows tracking and keplerian element data for the satellite.

Feedback or suggestion? Click here.




ElementValue
Catalog35932
NameSWISSCUBE
Epoch Orbit69894
Epoch Day325.09574689
Epoch Year2022
RAAN185.2617
Inclination98.5459
Eccentricity0.0006487
Argument of Perigee291.2833
Mean Anonmoly68.7672
Mean Motion14.57087039
Decay Rate6.29E-06
L11 35932U 09051B 22325.09574689 .00000629 00000+0 15042-3 0 9990
L22 35932 98.5459 185.2617 0006487 291.2833 68.7672 14.57087039698943



Live tracking and technical data element details for SWISSCUBE (NORAD 35932). SWISSCUBE can be tracked NOW for your location showing map with azimuth and elevation plus other details from your city location.







IsCatalogInMostPopularTable: catalog: 35932, numindb: 25321
Update: records affected: 1



GetName: 35932 SWISSCUBE

Hit Count: updated at: Fri, 02 Dec 2022 13:14:41 GMT